Location: Helsinki
(60.1699°N, 24.9384°E)
Time: 22:59:19
(UTC+03:00)

A-11 Canister half - All Passes

Search period start: 02 October 2022 00:00
Search period end: 12 October 2022 00:00
Orbit: 1515 x 1684 km, 47.2° (Epoch: 02 October)

Date Brightness Start Highest point End Pass type
(mag) Time Alt. Az. Time Alt. Az. Time Alt. Az.
02 Oct - 01:09:58 10° WSW 01:18:21 37° S 01:26:34 10° ESE visible
02 Oct - 03:13:47 10° W 03:21:23 29° SSW 03:28:54 10° SSE visible
02 Oct - 05:19:42 10° WSW 05:23:38 13° SW 05:27:34 10° SSW visible
02 Oct - 20:45:49 10° SSE 20:50:07 14° SE 20:54:21 10° ESE visible
02 Oct - 22:44:38 10° SSW 22:52:27 29° SSE 23:00:04 10° E visible
03 Oct - 00:47:07 10° WSW 00:55:32 37° S 01:03:45 10° ESE visible
03 Oct - 02:50:52 10° W 02:58:35 30° SSW 03:06:10 10° SSE visible
03 Oct - 04:56:31 10° WSW 05:00:53 14° SW 05:05:14 10° SSW visible
03 Oct - 20:23:28 10° SSE 20:27:21 13° SE 20:31:11 10° ESE visible
03 Oct - 22:21:53 10° SSW 22:29:38 29° SSE 22:37:12 10° E visible
04 Oct - 00:24:15 10° WSW 00:32:41 37° S 00:40:56 10° ESE visible
04 Oct - 02:27:58 10° W 02:35:46 31° SSW 02:43:27 10° SE visible
04 Oct - 04:33:23 10° WSW 04:38:07 15° SW 04:42:50 10° SSW visible
04 Oct - 20:01:12 10° SSE 20:04:35 12° SE 20:07:56 10° ESE visible
04 Oct - 21:59:08 10° SSW 22:06:49 28° SSE 22:14:19 10° E visible
05 Oct - 00:01:24 10° WSW 00:09:51 37° S 00:18:06 10° ESE visible
05 Oct - 02:05:04 10° WSW 02:12:58 31° SSW 02:20:42 10° SE night (unlit)
05 Oct - 04:10:18 10° WSW 04:15:22 16° SW 04:20:25 10° S visible
05 Oct - 19:39:04 10° SE 19:41:50 11° SE 19:44:35 10° ESE visible
05 Oct - 21:36:23 10° SSW 21:44:00 27° SSE 21:51:26 10° E visible
05 Oct - 23:38:32 10° WSW 23:47:01 37° S 23:55:16 10° ESE visible
06 Oct - 01:42:10 10° WSW 01:50:09 32° SSW 01:57:58 10° SE visible
06 Oct - 03:47:13 10° W 03:52:36 17° SW 03:57:56 10° S night (unlit)
06 Oct - 19:17:10 10° SE 19:19:05 11° SE 19:20:58 10° ESE visible
06 Oct - 21:13:39 10° SSW 21:21:11 27° SSE 21:28:32 10° E visible
06 Oct - 23:15:41 10° WSW 23:24:10 37° S 23:32:26 10° ESE visible
07 Oct - 01:19:15 10° WSW 01:27:19 33° SSW 01:35:12 10° SE visible
07 Oct - 03:24:11 10° W 03:29:50 18° SW 03:35:26 10° S night (unlit)
07 Oct - 20:50:56 10° SSW 20:58:22 26° SSE 21:05:39 10° E visible
07 Oct - 22:52:50 10° SW 23:01:20 37° S 23:09:36 10° ESE visible
08 Oct - 00:56:21 10° WSW 01:04:30 34° SSW 01:12:28 10° SE visible
08 Oct - 03:01:09 10° W 03:07:03 19° SW 03:12:54 10° S night (unlit)
08 Oct - 20:28:13 10° SSW 20:35:34 25° SSE 20:42:44 10° E visible
08 Oct - 22:30:00 10° SW 22:38:30 37° S 22:46:46 10° ESE visible
09 Oct - 00:33:27 10° WSW 00:41:40 34° SSW 00:49:41 10° SE visible
09 Oct - 02:38:08 10° W 02:44:17 20° SW 02:50:21 10° S night (unlit)
09 Oct - 20:05:31 10° SSW 20:12:45 24° SSE 20:19:50 10° E visible
09 Oct - 22:07:09 10° SW 22:15:39 36° S 22:23:56 10° ESE visible
10 Oct - 00:10:33 10° WSW 00:18:50 35° SSW 00:26:56 10° SE visible
10 Oct - 02:15:08 10° W 02:21:30 21° SW 02:27:47 10° S visible
10 Oct - 19:42:49 10° SSW 19:49:57 23° SE 19:56:54 10° E visible
10 Oct - 21:44:18 10° SW 21:52:49 36° S 22:01:05 10° ESE visible
10 Oct - 23:47:40 10° WSW 23:56:00 35° SSW 00:04:09 10° SE visible
11 Oct - 01:52:09 10° W 01:58:44 22° SW 02:05:12 10° S visible
11 Oct - 19:20:09 10° S 19:27:09 23° SE 19:33:59 10° E visible
11 Oct - 21:21:27 10° SW 21:29:58 36° SSE 21:38:14 10° ESE visible
11 Oct - 23:24:45 10° WSW 23:33:10 36° SSW 23:41:22 10° SE visible
